This demonstration page uses our WeatherBlox Daily Observations layout. Learn more.

Left ArrowRight Arrow

Hourly Observations for November 27, 2022

Temp ( °F °C ) Dew Point ( °F °C ) Humidity (%) Winds ( mph kmh ) Pressure ( in mb ) Visibility ( mi km ) Precip ( " mm )
12:53 am 00:53 Cloudy with Light Rain 55 12.8 54 12.2 96 96 ESE 9 15 29.88 1012 10 16 0.01 0.25
1:53 am 01:53 Cloudy with Light Rain 56 13.3 55 12.8 97 97 E 7 11 29.83 1010 10 16 0.07 1.78
2:53 am 02:53 Cloudy with Rain 57 13.9 56 13.3 96 96 Calm 29.83 1010 4 6 0.13 3.30
3:53 am 03:53 Cloudy with Rain 58 14.4 58 14.4 100 100 ESE 6 9 29.76 1008 6 10 0.08 2.03
4:53 am 04:53 Cloudy 59 15 59 15 100 100 Calm 29.74 1007 10 16 0.11 2.79
5:53 am 05:53 Cloudy 60 15.6 60 15.6 100 100 Calm 29.73 1007 10 16 0.01 0.25
6:00 am 06:00 Cloudy 60 15.6 60 15.6 100 100 Calm 29.75 1008 10 16 0.00 0.00
6:11 am 06:11 Cloudy 61 16.1 61 16.1 100 100 Calm 29.75 1008 10 16 0.00 0.00
6:53 am 06:53 Cloudy 60 15.6 60 15.6 100 100 E 5 7 29.74 1007 10 16 0.00 0.00
7:22 am 07:22 Cloudy 59 15 59 15 100 100 Calm 29.74 1007 7 11 0.00 0.00
7:53 am 07:53 Partly Cloudy 64 17.8 64 17.8 100 100 SW 6 9 29.74 1007 10 16 0.00 0.00
8:53 am 08:53 Sunny 65 18.3 61 16.1 87 87 SW 12 19 29.75 1007 10 16 0.00 0.00
9:53 am 09:53 Sunny 64 17.8 48 8.9 56 56 SW 13 20 29.78 1008 10 16 0.00 0.00
10:53 am 10:53 Sunny 64 17.8 47 8.3 54 54 WSW 15 24 29.80 1009 10 16 0.00 0.00
11:53 am 11:53 Sunny 64 17.8 46 7.8 52 52 W 16 26 29.80 1009 10 16 0.00 0.00
12:53 pm 12:53 Mostly Cloudy 64 17.8 46 7.8 52 52 W 20 31 29.79 1009 10 16 0.00 0.00
1:53 pm 13:53 Mostly Sunny 66 18.9 45 7.2 47 47 SW 14 22 29.77 1008 10 16 0.00 0.00
2:53 pm 14:53 Sunny 65 18.3 44 6.7 47 47 SW 13 20 29.76 1008 10 16 0.00 0.00
3:53 pm 15:53 Sunny 65 18.3 43 6.1 45 45 W 12 19 29.78 1008 10 16 0.00 0.00
4:53 pm 16:53 Sunny 64 17.8 44 6.7 48 48 WSW 7 11 29.79 1009 10 16 0.00 0.00
5:53 pm 17:53 Clear 62 16.7 44 6.7 52 52 SW 5 7 29.80 1009 10 16 0.00 0.00
6:53 pm 18:53 Clear 59 15 45 7.2 60 60 SW 3 6 29.83 1010 10 16 0.00 0.00
7:53 pm 19:53 Clear 56 13.3 45 7.2 66 66 Calm 29.84 1011 10 16 0.00 0.00
8:53 pm 20:53 Cloudy 57 13.9 45 7.2 64 64 SSW 5 7 29.86 1011 10 16 0.00 0.00
9:53 pm 21:53 Cloudy 57 13.9 46 7.8 67 67 SW 5 7 29.86 1011 10 16 0.00 0.00
10:53 pm 22:53 Cloudy 55 12.8 45 7.2 69 69 SW 5 7 29.87 1012 10 16 0.00 0.00
11:53 pm 23:53 Mostly Cloudy 53 11.7 45 7.2 74 74 SSW 7 11 29.87 1012 10 16 0.00 0.00

Powered by AerisWeather